Time,TemperatureF,DewpointF,PressureIn,WindDirection,WindDirectionDegrees,WindSpeedMPH,WindSpeedGustMPH,Humidity,HourlyPrecipIn,Conditions,Clouds,dailyrainin,SoftwareType,DateUTC
2013-02-28 00:10:00,31.7,31.0,29.60,WSW,247,0.0,0.0,97,0.00,,,0.00,weatherlink.com 1.10,2013-02-28 05:10:00,
2013-02-28 00:25:00,31.8,31.0,29.60,WNW,290,0.0,0.0,97,0.00,,,0.00,weatherlink.com 1.10,2013-02-28 05:25:00,
2013-02-28 00:40:00,31.9,31.0,29.60,SW,225,0.0,0.0,97,0.00,,,0.00,weatherlink.com 1.10,2013-02-28 05:40:00,
2013-02-28 00:55:00,32.0,31.0,29.60,WSW,256,0.0,0.0,97,0.00,,,0.00,weatherlink.com 1.10,2013-02-28 05:55:00,
2013-02-28 01:10:00,32.1,31.0,29.60,SW,226,0.0,0.0,97,0.00,,,0.00,weatherlink.com 1.10,2013-02-28 06:10:00,
2013-02-28 01:25:00,32.2,32.0,29.61,NW,309,0.0,0.0,97,0.00,,,0.00,weatherlink.com 1.10,2013-02-28 06:25:00,
2013-02-28 01:40:00,32.3,32.0,29.61,WNW,294,0.0,0.0,97,0.00,,,0.00,weatherlink.com 1.10,2013-02-28 06:40:00,
2013-02-28 01:55:00,32.5,32.0,29.61,WNW,286,0.0,0.0,97,0.00,,,0.00,weatherlink.com 1.10,2013-02-28 06:55:00,
2013-02-28 02:10:00,32.7,32.0,29.61,WNW,284,0.0,0.0,98,0.00,,,0.00,weatherlink.com 1.10,2013-02-28 07:10:00,
2013-02-28 02:25:00,32.8,32.0,29.61,WNW,287,0.0,0.0,98,0.00,,,0.00,weatherlink.com 1.10,2013-02-28 07:25:00,
2013-02-28 02:40:00,32.9,32.0,29.61,WNW,294,0.0,0.0,98,0.00,,,0.00,weatherlink.com 1.10,2013-02-28 07:40:00,
2013-02-28 02:55:00,33.0,33.0,29.62,WNW,290,0.0,0.0,98,0.00,,,0.00,weatherlink.com 1.10,2013-02-28 07:55:00,
2013-02-28 03:11:00,33.0,33.0,29.62,WNW,300,0.0,0.0,98,0.00,,,0.00,weatherlink.com 1.10,2013-02-28 08:11:00,
2013-02-28 03:25:00,33.0,33.0,29.62,WNW,302,0.0,0.0,98,0.00,,,0.00,weatherlink.com 1.10,2013-02-28 08:25:00,
2013-02-28 03:41:00,33.0,33.0,29.62,WNW,301,0.0,0.0,98,0.00,,,0.00,weatherlink.com 1.10,2013-02-28 08:41:00,
2013-02-28 03:56:00,33.1,33.0,29.62,WNW,303,0.0,0.0,98,0.00,,,0.00,weatherlink.com 1.10,2013-02-28 08:56:00,
2013-02-28 04:11:00,33.1,33.0,29.63,NW,306,0.0,0.0,98,0.00,,,0.00,weatherlink.com 1.10,2013-02-28 09:11:00,
2013-02-28 04:26:00,33.2,33.0,29.63,NW,306,0.0,1.0,98,0.00,,,0.00,weatherlink.com 1.10,2013-02-28 09:26:00,
2013-02-28 04:41:00,33.2,33.0,29.64,WNW,303,8.0,9.0,98,0.00,,,0.00,weatherlink.com 1.10,2013-02-28 09:41:00,
2013-02-28 04:56:00,33.3,33.0,29.64,WNW,293,6.0,12.0,98,0.00,,,0.00,weatherlink.com 1.10,2013-02-28 09:56:00,
2013-02-28 05:11:00,33.3,33.0,29.65,WNW,300,8.0,12.0,98,0.00,,,0.00,weatherlink.com 1.10,2013-02-28 10:11:00,
2013-02-28 05:26:00,33.2,33.0,29.66,NW,304,7.0,12.0,98,0.00,,,0.00,weatherlink.com 1.10,2013-02-28 10:26:00,
2013-02-28 05:41:00,33.2,33.0,29.65,WNW,301,8.0,11.0,97,0.00,,,0.00,weatherlink.com 1.10,2013-02-28 10:41:00,
2013-02-28 05:56:00,33.3,33.0,29.66,NW,304,10.0,13.0,97,0.00,,,0.00,weatherlink.com 1.10,2013-02-28 10:56:00,
2013-02-28 06:11:00,33.3,32.0,29.67,NW,309,8.0,12.0,96,0.00,,,0.00,weatherlink.com 1.10,2013-02-28 11:11:00,
2013-02-28 06:26:00,33.4,32.0,29.67,WNW,300,11.0,13.0,96,0.00,,,0.00,weatherlink.com 1.10,2013-02-28 11:26:00,
2013-02-28 06:41:00,33.3,32.0,29.67,NW,305,12.0,12.0,96,0.00,,,0.00,weatherlink.com 1.10,2013-02-28 11:41:00,
2013-02-28 06:56:00,33.3,32.0,29.68,WNW,297,6.0,12.0,96,0.00,,,0.00,weatherlink.com 1.10,2013-02-28 11:56:00,
2013-02-28 07:11:00,33.2,32.0,29.69,NW,309,9.0,12.0,96,0.00,,,0.00,weatherlink.com 1.10,2013-02-28 12:11:00,
2013-02-28 07:26:00,33.3,32.0,29.70,NW,318,12.0,13.0,96,0.00,,,0.00,weatherlink.com 1.10,2013-02-28 12:26:00,
2013-02-28 07:41:00,33.3,32.0,29.70,NW,306,11.0,12.0,96,0.00,,,0.00,weatherlink.com 1.10,2013-02-28 12:41:00,
2013-02-28 07:56:00,33.1,32.0,29.71,WNW,302,8.0,12.0,96,0.00,,,0.00,weatherlink.com 1.10,2013-02-28 12:56:00,
2013-02-28 08:11:00,33.0,32.0,29.71,NW,317,9.0,11.0,96,0.00,,,0.00,weatherlink.com 1.10,2013-02-28 13:11:00,
2013-02-28 08:26:00,33.1,32.0,29.72,WNW,297,8.0,11.0,96,0.00,,,0.00,weatherlink.com 1.10,2013-02-28 13:26:00,
2013-02-28 08:41:00,33.1,32.0,29.73,NW,317,9.0,12.0,96,0.00,,,0.00,weatherlink.com 1.10,2013-02-28 13:41:00,
2013-02-28 08:56:00,33.3,32.0,29.74,NW,316,10.0,13.0,94,0.00,,,0.00,weatherlink.com 1.10,2013-02-28 13:56:00,
2013-02-28 09:11:00,33.4,32.0,29.75,NW,312,8.0,14.0,93,0.00,,,0.00,weatherlink.com 1.10,2013-02-28 14:11:00,
2013-02-28 09:26:00,33.4,31.0,29.75,NW,311,7.0,14.0,92,0.00,,,0.00,weatherlink.com 1.10,2013-02-28 14:26:00,
2013-02-28 09:41:00,33.5,32.0,29.75,NNW,341,9.0,14.0,92,0.01,,,0.01,weatherlink.com 1.10,2013-02-28 14:41:00,
2013-02-28 09:56:00,33.6,32.0,29.76,NNW,327,10.0,13.0,92,0.01,,,0.01,weatherlink.com 1.10,2013-02-28 14:56:00,
2013-02-28 10:12:00,33.9,32.0,29.77,NNW,329,7.0,13.0,92,0.01,,,0.01,weatherlink.com 1.10,2013-02-28 15:12:00,
2013-02-28 10:27:00,34.0,32.0,29.77,NW,313,7.0,13.0,91,0.03,,,0.03,weatherlink.com 1.10,2013-02-28 15:27:00,
2013-02-28 10:42:00,34.2,32.0,29.77,NW,315,9.0,13.0,91,0.04,,,0.05,weatherlink.com 1.10,2013-02-28 15:42:00,
2013-02-28 10:57:00,34.4,32.0,29.78,NW,306,9.0,13.0,91,0.05,,,0.06,weatherlink.com 1.10,2013-02-28 15:57:00,
2013-02-28 11:12:00,34.6,32.0,29.78,NW,306,9.0,14.0,91,0.07,,,0.08,weatherlink.com 1.10,2013-02-28 16:12:00,
2013-02-28 11:27:00,34.7,32.0,29.79,WNW,301,10.0,14.0,91,0.05,,,0.09,weatherlink.com 1.10,2013-02-28 16:27:00,
2013-02-28 11:42:00,34.8,32.0,29.79,WNW,303,11.0,14.0,90,0.05,,,0.10,weatherlink.com 1.10,2013-02-28 16:42:00,
2013-02-28 11:57:00,34.8,32.0,29.80,WNW,299,9.0,14.0,90,0.04,,,0.10,weatherlink.com 1.10,2013-02-28 16:57:00,
2013-02-28 12:12:00,35.2,33.0,29.81,NW,313,9.0,12.0,90,0.03,,,0.11,weatherlink.com 1.10,2013-02-28 17:12:00,
2013-02-28 12:27:00,35.4,33.0,29.81,NW,324,6.0,11.0,90,0.03,,,0.12,weatherlink.com 1.10,2013-02-28 17:27:00,
2013-02-28 12:42:00,35.7,33.0,29.81,NNW,338,9.0,11.0,89,0.02,,,0.12,weatherlink.com 1.10,2013-02-28 17:42:00,
2013-02-28 12:57:00,35.9,33.0,29.81,NNW,329,8.0,12.0,89,0.03,,,0.13,weatherlink.com 1.10,2013-02-28 17:57:00,
2013-02-28 13:12:00,36.0,33.0,29.81,NW,322,9.0,14.0,88,0.02,,,0.13,weatherlink.com 1.10,2013-02-28 18:12:00,
2013-02-28 13:27:00,36.2,33.0,29.81,NNW,347,8.0,14.0,88,0.02,,,0.14,weatherlink.com 1.10,2013-02-28 18:27:00,
2013-02-28 13:42:00,36.2,33.0,29.81,NW,311,8.0,11.0,88,0.02,,,0.14,weatherlink.com 1.10,2013-02-28 18:42:00,
2013-02-28 13:57:00,36.2,33.0,29.82,NW,316,7.0,12.0,87,0.01,,,0.14,weatherlink.com 1.10,2013-02-28 18:57:00,
2013-02-28 14:12:00,36.3,33.0,29.82,NW,325,7.0,12.0,87,0.01,,,0.14,weatherlink.com 1.10,2013-02-28 19:12:00,
2013-02-28 14:27:00,36.4,33.0,29.82,NW,307,11.0,15.0,87,0.00,,,0.14,weatherlink.com 1.10,2013-02-28 19:27:00,
2013-02-28 14:42:00,36.7,33.0,29.82,NNW,333,10.0,14.0,86,0.00,,,0.14,weatherlink.com 1.10,2013-02-28 19:42:00,
2013-02-28 14:57:00,35.9,33.0,29.83,WNW,298,8.0,15.0,88,0.00,,,0.14,weatherlink.com 1.10,2013-02-28 19:57:00,
2013-02-28 15:12:00,35.9,33.0,29.84,WNW,295,12.0,14.0,88,0.00,,,0.14,weatherlink.com 1.10,2013-02-28 20:12:00,
2013-02-28 15:42:00,36.4,33.0,29.84,NW,308,5.0,10.0,88,0.00,,,0.14,weatherlink.com 1.10,2013-02-28 20:42:00,
2013-02-28 15:57:00,36.3,33.0,29.85,NNW,336,5.0,13.0,87,0.00,,,0.14,weatherlink.com 1.10,2013-02-28 20:57:00,
2013-02-28 16:12:00,36.3,33.0,29.85,NW,306,7.0,10.0,88,0.00,,,0.14,weatherlink.com 1.10,2013-02-28 21:12:00,
2013-02-28 16:27:00,36.4,33.0,29.86,NW,312,5.0,10.0,88,0.00,,,0.14,weatherlink.com 1.10,2013-02-28 21:27:00,
2013-02-28 16:42:00,36.1,33.0,29.86,NW,306,9.0,10.0,88,0.00,,,0.14,weatherlink.com 1.10,2013-02-28 21:42:00,
2013-02-28 16:57:00,35.8,33.0,29.87,NW,306,8.0,10.0,89,0.00,,,0.14,weatherlink.com 1.10,2013-02-28 21:57:00,
2013-02-28 17:12:00,35.5,33.0,29.88,NW,317,6.0,9.0,89,0.00,,,0.14,weatherlink.com 1.10,2013-02-28 22:12:00,
2013-02-28 17:27:00,35.4,33.0,29.88,WNW,302,8.0,9.0,89,0.00,,,0.14,weatherlink.com 1.10,2013-02-28 22:27:00,
2013-02-28 17:42:00,35.3,32.0,29.89,WNW,302,6.0,8.0,89,0.00,,,0.14,weatherlink.com 1.10,2013-02-28 22:42:00,
2013-02-28 17:57:00,35.3,32.0,29.89,WNW,300,5.0,10.0,89,0.00,,,0.14,weatherlink.com 1.10,2013-02-28 22:57:00,
2013-02-28 18:12:00,35.3,32.0,29.90,WNW,302,3.0,8.0,89,0.00,,,0.14,weatherlink.com 1.10,2013-02-28 23:12:00,
2013-02-28 18:27:00,35.2,32.0,29.91,WNW,297,8.0,11.0,89,0.00,,,0.14,weatherlink.com 1.10,2013-02-28 23:27:00,
2013-02-28 18:42:00,34.9,32.0,29.91,WNW,300,6.0,10.0,89,0.00,,,0.14,weatherlink.com 1.10,2013-02-28 23:42:00,
2013-02-28 18:57:00,34.7,32.0,29.92,WNW,300,10.0,13.0,89,0.00,,,0.14,weatherlink.com 1.10,2013-02-28 23:57:00,
2013-02-28 19:12:00,34.6,32.0,29.93,NW,313,5.0,11.0,89,0.00,,,0.14,weatherlink.com 1.10,2013-03-01 00:12:00,
2013-02-28 19:28:00,34.4,32.0,29.93,NW,311,8.0,11.0,89,0.00,,,0.14,weatherlink.com 1.10,2013-03-01 00:28:00,
2013-02-28 19:43:00,34.0,31.0,29.94,WNW,302,11.0,12.0,90,0.00,,,0.14,weatherlink.com 1.10,2013-03-01 00:43:00,
2013-02-28 19:58:00,33.8,31.0,29.94,NW,312,6.0,12.0,90,0.00,,,0.14,weatherlink.com 1.10,2013-03-01 00:58:00,
2013-02-28 20:13:00,33.6,31.0,29.95,WNW,303,10.0,15.0,90,0.00,,,0.14,weatherlink.com 1.10,2013-03-01 01:13:00,
2013-02-28 20:28:00,33.5,31.0,29.95,WNW,300,6.0,13.0,90,0.00,,,0.14,weatherlink.com 1.10,2013-03-01 01:28:00,
2013-02-28 20:43:00,33.2,31.0,29.95,NW,304,10.0,12.0,91,0.00,,,0.14,weatherlink.com 1.10,2013-03-01 01:43:00,
2013-02-28 20:58:00,32.9,31.0,29.95,NW,307,8.0,11.0,93,0.00,,,0.14,weatherlink.com 1.10,2013-03-01 01:58:00,
2013-02-28 21:13:00,32.6,31.0,29.96,NW,307,7.0,12.0,93,0.00,,,0.14,weatherlink.com 1.10,2013-03-01 02:13:00,
2013-02-28 21:28:00,32.4,31.0,29.96,NW,311,6.0,11.0,93,0.00,,,0.14,weatherlink.com 1.10,2013-03-01 02:28:00,
2013-02-28 21:43:00,32.3,31.0,29.96,NW,325,7.0,11.0,93,0.00,,,0.14,weatherlink.com 1.10,2013-03-01 02:43:00,
2013-02-28 21:58:00,32.2,31.0,29.96,NW,317,4.0,10.0,94,0.00,,,0.14,weatherlink.com 1.10,2013-03-01 02:58:00,
2013-02-28 22:13:00,32.1,31.0,29.96,NW,306,7.0,10.0,94,0.00,,,0.14,weatherlink.com 1.10,2013-03-01 03:13:00,
2013-02-28 22:28:00,32.0,31.0,29.96,NNW,327,5.0,10.0,94,0.00,,,0.14,weatherlink.com 1.10,2013-03-01 03:28:00,
2013-02-28 22:43:00,31.9,30.0,29.96,NW,304,6.0,9.0,94,0.00,,,0.14,weatherlink.com 1.10,2013-03-01 03:43:00,
2013-02-28 22:58:00,31.9,30.0,29.96,NW,324,5.0,8.0,94,0.00,,,0.14,weatherlink.com 1.10,2013-03-01 03:58:00,
2013-02-28 23:13:00,31.9,31.0,29.96,NW,317,4.0,8.0,95,0.00,,,0.14,weatherlink.com 1.10,2013-03-01 04:13:00,
2013-02-28 23:28:00,31.8,31.0,29.96,NW,317,5.0,7.0,95,0.00,,,0.14,weatherlink.com 1.10,2013-03-01 04:28:00,
2013-02-28 23:43:00,31.7,31.0,29.96,NW,305,5.0,8.0,95,0.00,,,0.14,weatherlink.com 1.10,2013-03-01 04:43:00,
2013-02-28 23:58:00,31.7,31.0,29.96,NW,325,4.0,8.0,95,0.00,,,0.14,weatherlink.com 1.10,2013-03-01 04:58:00,